Simultaneous Nadir Overpasses (SNOs) Predictions

Prediction of SNOs between GOES-15 and TERRA Satellite Orbit:

Table of predicted SNOs for the next 14.0 days since TLE Epoch: 8/29/2015
Index Date Time (GOES-15) GOES-15 Lat,Lon TERRA Lat,Lon Distance(km) Time Diff (sec)
1 08/30/2015 07:31:45 0.29,-135.03 0.29,-135.00 3.04 80
2 09/01/2015 07:19:32 0.28,-135.07 0.94,-132.04 344.95 80
3 09/01/2015 19:38:07 -0.30,-135.13 0.16,-137.20 235.82 80
4 09/03/2015 19:28:34 -0.30,-135.16 -0.51,-134.24 105.53 80
5 09/04/2015 07:47:17 0.32,-135.13 -0.57,-139.43 488.54 80
6 09/05/2015 19:16:20 -0.29,-135.20 -1.12,-131.27 446.42 80
7 09/06/2015 07:35:03 0.31,-135.16 0.05,-136.46 147.76 80
8 09/08/2015 07:25:30 0.31,-135.19 0.67,-133.49 192.62 80
9 09/08/2015 19:44:04 -0.32,-135.23 0.42,-138.65 388.76 80
10 09/10/2015 19:31:50 -0.32,-135.26 -0.21,-135.68 48.66 80




NCC Satellite Simultaneous Nadir Overpasses (SNOs) Prediction Service
